Find Starlink 31623

NORAD ID: 59272 Int'l Des: 2024-050 Owner: SPXS Country: US Constellation: starlink operational
LEOCIRCULAR

リアルタイム位置

3D地球を読み込み中...

Starlink 31623について

説明を読み込み中...

次回通過

Passes for default location (London). Set your location on the main map for personalized predictions.

高度履歴

Loading altitude history...

軌道要素

1 59272U 24050U 26133.02660885 -.00000200 00000-0 53696-5 0 9993
2 59272 53.1610 241.8187 0001306 95.9931 264.1219 15.30187281120408
Epoch: May 13, 2026 • Age: 9 hours

現在のステータス

高度 493.8 km
速度 7.62 km/s
衛星直下点 -51.21°S, 113.03°E
打ち上げ日 Mar 19, 2024
運用期間 2.1 years
タイプ internet

技術仕様

分類 Payload
質量 730.00 kg
乾燥質量 700.00 kg
総質量 730.00 kg
長さ 0.30 m
直径 4.10 m
スパン 29.00 m
形状 Box + pan
製造者 SPXS
バスタイプ Starlink V2M
フェーズステータス In Orbit
所有者/国 SPXS/US

Most Searched